<?xml version="1.0" encoding="UTF-8" standalone="no" ?>
<gpx xmlns="http://www.topografix.com/GPX/1/1" xmlns:xsi="http://www.w3.org/2001/XMLSchema-instance" xsi:schemaLocation="http://www.topografix.com/GPX/1/1 http://www.topografix.com/GPX/1/1/gpx.xsd" version="1.1" creator="VisuGPX - https://www.visugpx.com">
  <metadata>
    <name>Raid Bulles : Barsuraubois</name>
    <desc><![CDATA[parcours RAID BULLES EN CHAMPAGNE 375KM]]></desc>
  </metadata>
  <wpt lat="48.1461" lon="4.76948">
    <ele>206.1</ele>
    <name><![CDATA[Ravitaillement chaud]]></name>
  </wpt>
  <wpt lat="48.14803" lon="4.83346">
    <ele>208.6</ele>
    <name><![CDATA[Départ réel]]></name>
  </wpt>
  <wpt lat="48.13585" lon="4.66919">
    <ele>253.9</ele>
    <name><![CDATA[Gravel début section]]></name>
  </wpt>
  <wpt lat="48.21735" lon="4.71382">
    <ele>168.8</ele>
  </wpt>
  <trk>
    <name><![CDATA[33. Circuit sur étang, Spoy-17237885]]></name>
    <extensions>
      <line xmlns="http://www.topografix.com/GPX/gpx_style/0/2">
        <color>00FF00</color>
        <width>4</width>
      </line>
    </extensions>
    <trkseg>
      <trkpt lat="48.22809" lon="4.6199">
        <ele>178</ele>
        <time>2024-07-03T07:40:10Z</time>
      </trkpt>
      <trkpt lat="48.22671" lon="4.62079">
        <ele>178</ele>
        <time>2024-07-03T07:40:37Z</time>
      </trkpt>
      <trkpt lat="48.22614" lon="4.62522">
        <ele>176</ele>
        <time>2024-07-03T07:41:30Z</time>
      </trkpt>
      <trkpt lat="48.22603" lon="4.62628">
        <ele>177</ele>
        <time>2024-07-03T07:41:43Z</time>
      </trkpt>
      <trkpt lat="48.22598" lon="4.62757">
        <ele>179</ele>
        <time>2024-07-03T07:41:58Z</time>
      </trkpt>
      <trkpt lat="48.22583" lon="4.62968">
        <ele>194</ele>
        <time>2024-07-03T07:42:23Z</time>
      </trkpt>
      <trkpt lat="48.22588" lon="4.63056">
        <ele>201</ele>
        <time>2024-07-03T07:42:34Z</time>
      </trkpt>
      <trkpt lat="48.22642" lon="4.63324">
        <ele>231</ele>
        <time>2024-07-03T07:43:07Z</time>
      </trkpt>
      <trkpt lat="48.22658" lon="4.63385">
        <ele>234</ele>
        <time>2024-07-03T07:43:15Z</time>
      </trkpt>
      <trkpt lat="48.22718" lon="4.6355">
        <ele>249</ele>
        <time>2024-07-03T07:43:37Z</time>
      </trkpt>
      <trkpt lat="48.22733" lon="4.63604">
        <ele>253</ele>
        <time>2024-07-03T07:43:44Z</time>
      </trkpt>
      <trkpt lat="48.22736" lon="4.63637">
        <ele>255</ele>
        <time>2024-07-03T07:43:48Z</time>
      </trkpt>
      <trkpt lat="48.22728" lon="4.63719">
        <ele>261</ele>
        <time>2024-07-03T07:43:58Z</time>
      </trkpt>
      <trkpt lat="48.22703" lon="4.63814">
        <ele>267</ele>
        <time>2024-07-03T07:44:10Z</time>
      </trkpt>
      <trkpt lat="48.22681" lon="4.63868">
        <ele>269</ele>
        <time>2024-07-03T07:44:17Z</time>
      </trkpt>
      <trkpt lat="48.22679" lon="4.63876">
        <ele>269</ele>
        <time>2024-07-03T07:44:18Z</time>
      </trkpt>
      <trkpt lat="48.22684" lon="4.63883">
        <ele>270</ele>
        <time>2024-07-03T07:44:20Z</time>
      </trkpt>
      <trkpt lat="48.22696" lon="4.63873">
        <ele>269</ele>
        <time>2024-07-03T07:44:22Z</time>
      </trkpt>
      <trkpt lat="48.22748" lon="4.63759">
        <ele>263</ele>
        <time>2024-07-03T07:44:38Z</time>
      </trkpt>
      <trkpt lat="48.22762" lon="4.63711">
        <ele>261</ele>
        <time>2024-07-03T07:44:45Z</time>
      </trkpt>
      <trkpt lat="48.22771" lon="4.6363">
        <ele>258</ele>
        <time>2024-07-03T07:44:54Z</time>
      </trkpt>
      <trkpt lat="48.22772" lon="4.63551">
        <ele>258</ele>
        <time>2024-07-03T07:45:04Z</time>
      </trkpt>
      <trkpt lat="48.22766" lon="4.63463">
        <ele>259</ele>
        <time>2024-07-03T07:45:14Z</time>
      </trkpt>
      <trkpt lat="48.22732" lon="4.63282">
        <ele>254</ele>
        <time>2024-07-03T07:45:37Z</time>
      </trkpt>
      <trkpt lat="48.22733" lon="4.63264">
        <ele>254</ele>
        <time>2024-07-03T07:45:39Z</time>
      </trkpt>
      <trkpt lat="48.22741" lon="4.6324">
        <ele>256</ele>
        <time>2024-07-03T07:45:42Z</time>
      </trkpt>
      <trkpt lat="48.22781" lon="4.63177">
        <ele>259</ele>
        <time>2024-07-03T07:45:52Z</time>
      </trkpt>
      <trkpt lat="48.22886" lon="4.62983">
        <ele>253</ele>
        <time>2024-07-03T07:46:22Z</time>
      </trkpt>
      <trkpt lat="48.22982" lon="4.6287">
        <ele>245</ele>
        <time>2024-07-03T07:46:44Z</time>
      </trkpt>
      <trkpt lat="48.23034" lon="4.62816">
        <ele>241</ele>
        <time>2024-07-03T07:46:55Z</time>
      </trkpt>
      <trkpt lat="48.2316" lon="4.62719">
        <ele>230</ele>
        <time>2024-07-03T07:47:20Z</time>
      </trkpt>
      <trkpt lat="48.23184" lon="4.62712">
        <ele>228</ele>
        <time>2024-07-03T07:47:24Z</time>
      </trkpt>
      <trkpt lat="48.2329" lon="4.62705">
        <ele>220</ele>
        <time>2024-07-03T07:47:43Z</time>
      </trkpt>
      <trkpt lat="48.23297" lon="4.62698">
        <ele>219</ele>
        <time>2024-07-03T07:47:45Z</time>
      </trkpt>
      <trkpt lat="48.233" lon="4.62682">
        <ele>216</ele>
        <time>2024-07-03T07:47:47Z</time>
      </trkpt>
      <trkpt lat="48.23297" lon="4.62641">
        <ele>211</ele>
        <time>2024-07-03T07:47:52Z</time>
      </trkpt>
      <trkpt lat="48.23273" lon="4.62561">
        <ele>204</ele>
        <time>2024-07-03T07:48:02Z</time>
      </trkpt>
      <trkpt lat="48.23273" lon="4.62548">
        <ele>202</ele>
        <time>2024-07-03T07:48:03Z</time>
      </trkpt>
      <trkpt lat="48.23292" lon="4.62475">
        <ele>190</ele>
        <time>2024-07-03T07:48:13Z</time>
      </trkpt>
      <trkpt lat="48.23292" lon="4.62456">
        <ele>188</ele>
        <time>2024-07-03T07:48:15Z</time>
      </trkpt>
      <trkpt lat="48.23285" lon="4.62432">
        <ele>186</ele>
        <time>2024-07-03T07:48:18Z</time>
      </trkpt>
      <trkpt lat="48.2325" lon="4.62374">
        <ele>182</ele>
        <time>2024-07-03T07:48:27Z</time>
      </trkpt>
      <trkpt lat="48.2324" lon="4.62341">
        <ele>178</ele>
        <time>2024-07-03T07:48:32Z</time>
      </trkpt>
      <trkpt lat="48.23211" lon="4.62281">
        <ele>175</ele>
        <time>2024-07-03T07:48:40Z</time>
      </trkpt>
      <trkpt lat="48.23179" lon="4.62188">
        <ele>174</ele>
        <time>2024-07-03T07:48:53Z</time>
      </trkpt>
      <trkpt lat="48.23161" lon="4.62179">
        <ele>175</ele>
        <time>2024-07-03T07:48:56Z</time>
      </trkpt>
      <trkpt lat="48.23096" lon="4.62189">
        <ele>174</ele>
        <time>2024-07-03T07:49:08Z</time>
      </trkpt>
      <trkpt lat="48.23069" lon="4.62186">
        <ele>174</ele>
        <time>2024-07-03T07:49:13Z</time>
      </trkpt>
      <trkpt lat="48.23016" lon="4.6213">
        <ele>174</ele>
        <time>2024-07-03T07:49:24Z</time>
      </trkpt>
      <trkpt lat="48.22938" lon="4.62028">
        <ele>174</ele>
        <time>2024-07-03T07:49:43Z</time>
      </trkpt>
      <trkpt lat="48.22918" lon="4.62012">
        <ele>174</ele>
        <time>2024-07-03T07:49:47Z</time>
      </trkpt>
      <trkpt lat="48.22887" lon="4.62005">
        <ele>175</ele>
        <time>2024-07-03T07:49:52Z</time>
      </trkpt>
      <trkpt lat="48.22876" lon="4.61957">
        <ele>177</ele>
        <time>2024-07-03T07:49:58Z</time>
      </trkpt>
      <trkpt lat="48.22875" lon="4.61947">
        <ele>177</ele>
        <time>2024-07-03T07:49:59Z</time>
      </trkpt>
      <trkpt lat="48.22844" lon="4.61961">
        <ele>178</ele>
        <time>2024-07-03T07:50:05Z</time>
      </trkpt>
      <trkpt lat="48.22822" lon="4.61977">
        <ele>178</ele>
        <time>2024-07-03T07:50:10Z</time>
      </trkpt>
      <trkpt lat="48.22816" lon="4.61984">
        <ele>178</ele>
        <time>2024-07-03T07:50:11Z</time>
      </trkpt>
    </trkseg>
  </trk>
</gpx>